TimeCDT,TemperatureF,Dew PointF,Humidity,Sea Level PressureIn,VisibilityMPH,Wind Direction,Wind SpeedMPH,Gust SpeedMPH,PrecipitationIn,Events,Conditions,WindDirDegrees,DateUTC
12:15 AM,62.6,62.6,100,29.77,10.0,South,8.1,-,N/A,,Mostly Cloudy,170,2012-10-14 05:15:00
12:35 AM,62.6,60.8,94,29.76,10.0,South,5.8,-,N/A,,Mostly Cloudy,180,2012-10-14 05:35:00
12:55 AM,62.6,60.8,94,29.77,10.0,South,8.1,-,N/A,,Scattered Clouds,190,2012-10-14 05:55:00
1:15 AM,62.6,60.8,94,29.77,10.0,South,5.8,-,N/A,,Mostly Cloudy,190,2012-10-14 06:15:00
1:35 AM,62.6,60.8,94,29.77,10.0,SSW,5.8,-,N/A,,Mostly Cloudy,200,2012-10-14 06:35:00
1:55 AM,62.6,60.8,94,29.77,10.0,South,8.1,-,0.01,,Mostly Cloudy,190,2012-10-14 06:55:00
2:15 AM,62.6,60.8,94,29.77,10.0,SSW,4.6,-,N/A,,Scattered Clouds,200,2012-10-14 07:15:00
2:35 AM,62.6,60.8,94,29.76,10.0,SSW,5.8,-,N/A,,Clear,210,2012-10-14 07:35:00
2:55 AM,62.6,60.8,94,29.77,10.0,SSW,6.9,-,N/A,,Clear,210,2012-10-14 07:55:00
3:15 AM,62.6,60.8,94,29.76,10.0,SSW,9.2,-,N/A,,Clear,210,2012-10-14 08:15:00
3:35 AM,62.6,60.8,94,29.77,10.0,SW,11.5,17.3,N/A,,Clear,220,2012-10-14 08:35:00
3:55 AM,62.6,60.8,94,29.77,10.0,SW,11.5,16.1,N/A,,Clear,230,2012-10-14 08:55:00
4:15 AM,62.6,60.8,94,29.78,10.0,WSW,10.4,-,0.01,,Clear,240,2012-10-14 09:15:00
4:35 AM,62.6,59.0,88,29.79,10.0,SW,8.1,18.4,0.01,,Clear,230,2012-10-14 09:35:00
4:55 AM,60.8,59.0,94,29.78,10.0,SW,6.9,-,0.01,,Clear,220,2012-10-14 09:55:00
5:15 AM,60.8,57.2,88,29.79,10.0,WSW,8.1,-,N/A,,Clear,240,2012-10-14 10:15:00
5:35 AM,60.8,55.4,82,29.81,10.0,WSW,5.8,-,N/A,,Clear,240,2012-10-14 10:35:00
5:55 AM,59.0,55.4,88,29.81,10.0,SW,9.2,-,N/A,,Clear,220,2012-10-14 10:55:00
6:15 AM,59.0,53.6,82,29.82,10.0,WSW,9.2,-,0.01,,Clear,240,2012-10-14 11:15:00
6:35 AM,59.0,53.6,82,29.83,10.0,WSW,8.1,-,0.01,,Clear,240,2012-10-14 11:35:00
6:55 AM,59.0,55.4,88,29.83,10.0,SW,8.1,-,0.01,,Clear,230,2012-10-14 11:55:00
7:15 AM,59.0,53.6,82,29.84,10.0,WSW,9.2,16.1,N/A,,Clear,240,2012-10-14 12:15:00
7:35 AM,59.0,53.6,82,29.86,10.0,WSW,6.9,-,N/A,,Clear,240,2012-10-14 12:35:00
7:55 AM,59.0,53.6,82,29.89,10.0,WSW,8.1,-,0.01,,Clear,250,2012-10-14 12:55:00
8:15 AM,59.0,51.8,77,29.90,10.0,WSW,5.8,-,N/A,,Clear,240,2012-10-14 13:15:00
8:35 AM,59.0,51.8,77,29.91,10.0,WSW,8.1,-,N/A,,Clear,250,2012-10-14 13:35:00
8:55 AM,60.8,51.8,72,29.93,10.0,West,8.1,-,0.01,,Clear,260,2012-10-14 13:55:00
9:15 AM,60.8,51.8,72,29.94,10.0,West,8.1,-,N/A,,Clear,270,2012-10-14 14:15:00
9:35 AM,62.6,51.8,68,29.95,10.0,WNW,10.4,-,0.01,,Clear,290,2012-10-14 14:35:00
9:55 AM,62.6,51.8,68,29.95,10.0,West,8.1,-,0.01,,Clear,280,2012-10-14 14:55:00
10:15 AM,64.4,53.6,68,29.96,10.0,WNW,9.2,-,0.01,,Clear,290,2012-10-14 15:15:00
10:35 AM,64.4,53.6,68,29.98,10.0,WNW,9.2,-,0.02,,Clear,290,2012-10-14 15:35:00
10:55 AM,64.4,53.6,68,29.99,10.0,WNW,10.4,-,0.03,,Clear,290,2012-10-14 15:55:00
11:15 AM,66.2,53.6,64,30.00,10.0,West,8.1,-,0.01,,Clear,280,2012-10-14 16:15:00
11:35 AM,66.2,53.6,64,30.02,10.0,NW,9.2,17.3,0.02,,Clear,310,2012-10-14 16:35:00
11:55 AM,68.0,53.6,60,30.03,10.0,WNW,11.5,18.4,0.03,,Clear,300,2012-10-14 16:55:00
12:15 PM,68.0,53.6,60,30.02,10.0,West,8.1,-,0.02,,Clear,280,2012-10-14 17:15:00
12:35 PM,69.8,53.6,56,30.02,10.0,West,9.2,-,0.04,,Clear,280,2012-10-14 17:35:00
12:55 PM,69.8,53.6,56,30.03,10.0,West,9.2,-,0.06,,Clear,280,2012-10-14 17:55:00
1:15 PM,69.8,53.6,56,30.03,10.0,NW,11.5,-,0.01,,Clear,320,2012-10-14 18:15:00
1:35 PM,69.8,53.6,56,30.03,10.0,West,13.8,18.4,0.03,,Clear,280,2012-10-14 18:35:00
1:55 PM,71.6,51.8,50,30.02,10.0,WNW,12.7,21.9,0.05,,Clear,300,2012-10-14 18:55:00
2:15 PM,71.6,51.8,50,30.02,10.0,WNW,9.2,-,0.02,,Clear,290,2012-10-14 19:15:00
2:35 PM,71.6,50.0,46,30.02,10.0,WNW,10.4,19.6,0.04,,Clear,300,2012-10-14 19:35:00
3:15 PM,73.4,50.0,44,30.02,10.0,NW,9.2,18.4,0.02,,Clear,320,2012-10-14 20:15:00
3:35 PM,73.4,48.2,41,30.02,10.0,WNW,12.7,18.4,0.04,,Clear,290,2012-10-14 20:35:00
3:55 PM,73.4,46.4,38,30.02,10.0,NW,12.7,-,0.06,,Clear,320,2012-10-14 20:55:00
4:15 PM,73.4,46.4,38,30.02,10.0,NW,10.4,-,0.02,,Clear,310,2012-10-14 21:15:00
4:35 PM,73.4,44.6,36,30.02,10.0,NNW,9.2,-,0.05,,Clear,340,2012-10-14 21:35:00
4:55 PM,73.4,44.6,36,30.02,10.0,WNW,10.4,17.3,0.08,,Clear,300,2012-10-14 21:55:00
5:15 PM,71.6,44.6,38,30.02,10.0,NNW,9.2,-,0.03,,Clear,330,2012-10-14 22:15:00
5:35 PM,71.6,44.6,38,30.03,10.0,NNW,9.2,-,0.06,,Clear,330,2012-10-14 22:35:00
5:55 PM,69.8,44.6,40,30.03,10.0,NNW,6.9,-,0.09,,Clear,330,2012-10-14 22:55:00
6:15 PM,69.8,46.4,43,30.03,10.0,NW,4.6,-,0.03,,Clear,320,2012-10-14 23:15:00
6:35 PM,66.2,46.4,49,30.04,10.0,NNW,3.5,-,0.06,,Clear,330,2012-10-14 23:35:00
6:55 PM,62.6,46.4,55,30.04,10.0,Calm,Calm,-,0.08,,Clear,0,2012-10-14 23:55:00
7:15 PM,60.8,46.4,59,30.04,10.0,Calm,Calm,-,0.03,,Clear,0,2012-10-15 00:15:00
7:35 PM,59.0,50.0,72,30.05,10.0,Calm,Calm,-,0.05,,Clear,0,2012-10-15 00:35:00
7:55 PM,55.4,50.0,82,30.05,10.0,Calm,Calm,-,0.08,,Clear,0,2012-10-15 00:55:00
8:15 PM,53.6,50.0,88,30.05,10.0,Calm,Calm,-,0.02,,Clear,0,2012-10-15 01:15:00
8:35 PM,51.8,50.0,94,30.06,10.0,Calm,Calm,-,0.05,,Clear,0,2012-10-15 01:35:00
8:55 PM,51.8,50.0,94,30.06,10.0,Calm,Calm,-,0.07,,Clear,0,2012-10-15 01:55:00
9:15 PM,51.8,48.2,88,30.07,10.0,Calm,Calm,-,0.02,,Clear,0,2012-10-15 02:15:00
9:35 PM,51.8,48.2,88,30.07,10.0,Calm,Calm,-,0.04,,Clear,0,2012-10-15 02:35:00
9:55 PM,50.0,48.2,94,30.07,10.0,Calm,Calm,-,0.06,,Clear,0,2012-10-15 02:55:00
10:15 PM,50.0,48.2,94,30.09,10.0,Calm,Calm,-,0.01,,Clear,0,2012-10-15 03:15:00
10:35 PM,50.0,48.2,94,30.09,10.0,Calm,Calm,-,0.03,,Clear,0,2012-10-15 03:35:00
10:55 PM,50.0,48.2,94,30.09,3.0,Calm,Calm,-,0.05,,Clear,0,2012-10-15 03:55:00
11:15 PM,48.2,46.4,93,30.09,10.0,Calm,Calm,-,0.02,,Clear,0,2012-10-15 04:15:00
11:35 PM,48.2,46.4,93,30.09,10.0,Calm,Calm,-,0.03,,Clear,0,2012-10-15 04:35:00
11:55 PM,50.0,46.4,87,30.09,10.0,Calm,Calm,-,0.05,,Clear,0,2012-10-15 04:55:00